Main page
METAR-TAF:

METAR-TAF

Airports :

Bob Sikes Airport

Crestview, Florida, United States

latitude: 30-46-20N, longitude: 086-31-12W, elevation: 213 ft

Current weather observation

The report was made 45 minutes ago, at 09:53 UTC
Wind 7 mph from the South/Southwest
Temperature 72°F
Humidity 94%
Pressure 30.01 in. Hg
Visibility: 6 miles
Overcast at a height of 600 ft
mist

METAR: KCEW 010953Z AUTO 21006KT 6SM BR OVC006 22/21 A3001 RMK AO2 CIG 005V010 SLP160 T02220211

Time: 04:38 (10:38 UTC)


TAF: missing

Weather observations and forecasts of more than 4000 airports (METAR and TAF reports).

The available stations are represented by yellow and red dots on the map.

Hover mouse over dot to see the name of the station.

Then click to see weather observations and forecasts.

To change the map : click on the green buttons with a black cross to zoom in, on the green button with a dash to zoom out, or on the green arrows for adjacent maps.


METAR-TAF: